Location: Gostynin
(52.4203°N, 19.4677°E)
Time: 13:12:11
(UTC+01:00)

ISS - Visible Passes

Search period start: 21 November 2017 00:00
Search period end: 01 December 2017 00:00
Orbit: 402 x 407 km, 51.6° (Epoch: 21 November)

Date Brightness Start Highest point End Pass type
(mag) Time Alt. Az. Time Alt. Az. Time Alt. Az.
28 Nov -1.0 18:17:26 10° SSW 18:17:53 12° SSW 18:17:53 12° SSW visible
29 Nov -1.7 17:25:57 10° S 17:27:47 15° SE 17:27:47 15° SE visible
30 Nov -2.0 18:08:31 10° SW 18:10:17 25° SSW 18:10:17 25° SSW visible
